Tracking 19275 objects as of 12-Nov-2018
HD Live streaming from Space Station
objects crossing your sky now

SOLRAD 1 (GREB)

Track SOLRAD 1 (GREB) now!
10-day predictions
SOLRAD 1 (GREB) is classified as:


NORAD ID: 46
Int'l Code: 1960-007B
Perigee: 583.3 km
Apogee: 887.6 km
Inclination: 66.7 °
Period: 99.4 minutes
Semi major axis: 7106 km
RCS: 0.3563 m2 (medium)
Launch date: June 22, 1960
Source: United States (US)
Launch site: AIR FORCE EASTERN TEST RANGE (AFETR)
aabbcc
Your satellite tracking list
Your tracking list is empty




NASA's NSSDC Master Catalog

Two Line Element Set (TLE):
1    46U 60007B   18316.04123705 -.00000023  00000-0  18583-4 0  9999
2    46  66.6896 182.7687 0214123 207.7530 151.2022 14.49183569 54562
Source of the keplerian elements: AFSPC